Wind_Speed
6 5 5 5 2 4 7 7 7 5 3 3 5 8 8 8 9 9 9 8 6 4 3 6 9 12 13 14 13 13 13 11 9 7 7 7 8 8 8 6 5 4 3 3 2 5 12 18 19
7 5 4 3 5 7 7 8 8 7 5 4 5 8 9 9 10 10 10 8 7 6 4 5 8 11 12 13 12 12 13 12 10 8 8 8 9 8 8 6 5 4 4 3 1 3 8 15 18
7 6 4 3 7 7 8 9 9 9 7 6 6 8 9 10 10 10 9 9 8 7 5 5 7 10 11 12 11 11 12 13 11 9 9 9 9 8 7 6 6 5 4 3 2 2 5 11 15
8 6 5 6 7 6 7 8 9 9 7 7 7 8 9 10 10 9 9 9 8 7 6 5 6 8 10 11 11 11 12 13 12 10 10 10 9 8 7 6 6 5 4 3 2 1 3 7 12
9 8 6 6 6 5 6 7 8 8 9 9 9 9 9 9 9 9 9 8 8 8 7 5 6 7 9 10 10 11 11 12 12 11 10 10 10 9 7 6 6 6 5 3 2 2 3 5 8
9 8 6 4 3 3 4 5 7 8 8 8 10 10 9 8 8 8 8 8 8 8 7 6 6 7 9 9 10 11 12 12 13 13 12 11 11 9 8 7 7 6 6 5 5 5 5 6 7
10 9 7 4 3 1 3 5 7 9 10 11 11 11 10 9 8 7 7 8 8 9 8 6 6 7 8 9 9 11 12 12 13 14 13 13 12 11 9 8 8 7 7 7 7 8 8 9 9
12 11 9 6 5 3 2 4 6 8 10 11 12 12 11 9 8 6 5 6 7 8 8 7 7 7 8 8 9 11 12 13 14 15 15 14 13 12 11 9 9 8 8 8 8 9 11 12 12
14 12 10 8 8 6 6 6 6 8 10 10 12 13 12 11 9 6 4 5 7 8 8 8 8 8 8 8 9 11 12 14 15 16 15 15 14 13 12 11 10 10 9 9 9 10 11 13 14
15 14 11 11 10 9 9 9 10 10 11 11 11 12 12 12 10 7 5 5 6 7 8 9 9 9 9 9 10 11 12 13 14 15 15 15 14 14 13 12 11 11 10 10 9 10 12 13 14
18 17 15 13 12 12 12 12 12 13 13 14 14 12 12 12 11 9 7 7 7 8 9 10 11 11 11 11 11 12 13 14 14 15 16 15 15 14 13 12 12 12 11 10 10 10 12 14 15
20 19 18 16 16 15 15 15 15 15 15 16 17 16 14 13 12 11 10 10 10 10 11 12 13 12 13 13 13 13 13 14 15 16 16 16 16 14 14 13 13 12 12 11 10 11 12 13 14
22 22 21 19 18 18 18 18 18 18 17 18 19 19 18 15 14 12 12 12 12 12 13 14 14 14 14 14 14 14 14 14 14 15 16 16 16 15 15 15 13 13 13 12 11 11 11 12 14
24 24 23 22 22 21 21 21 21 21 21 19 20 21 21 19 17 15 13 13 13 13 13 14 15 14 14 15 15 15 15 15 15 15 15 16 16 16 16 16 15 13 13 13 12 11 12 12 14
24 24 24 24 25 25 26 24 24 25 25 23 22 22 22 21 19 18 17 15 15 14 13 14 14 15 15 16 16 16 16 16 16 15 16 16 17 17 17 17 16 14 13 13 13 13 13 13 13
26 27 27 27 29 29 30 27 27 29 27 26 24 25 24 22 21 20 19 18 17 16 15 15 15 16 16 17 17 18 18 18 17 17 16 16 16 17 18 18 17 15 14 14 14 14 14 14 14
30 30 30 29 31 33 34 31 29 32 30 29 27 27 27 26 24 22 21 20 19 18 18 17 16 17 18 18 18 19 19 19 18 18 18 17 17 18 18 19 18 17 15 15 15 15 15 15 15
34 34 34 34 35 36 36 35 32 34 35 33 31 29 28 28 27 25 22 21 20 19 19 19 19 18 19 19 19 19 20 20 19 19 19 20 19 19 19 20 20 19 17 16 15 16 16 16 16
38 38 37 38 39 39 38 38 36 36 37 37 34 31 29 29 29 29 25 23 22 21 20 20 21 20 20 20 20 21 21 21 20 19 21 22 22 22 22 22 22 20 19 18 16 17 18 18 18
40 41 42 43 43 42 42 41 39 38 37 36 35 32 31 29 29 31 28 25 23 21 21 21 21 21 21 22 21 21 22 22 21 22 22 23 23 24 24 24 24 23 22 20 19 18 19 20 20
40 42 42 42 43 44 45 43 41 40 39 37 37 35 32 30 31 32 29 25 24 22 21 21 21 21 22 22 22 22 22 23 23 23 24 24 25 26 26 25 25 25 23 21 21 21 21 21 21
36 37 38 39 39 40 41 43 37 37 37 36 34 33 31 30 30 32 30 26 25 23 22 21 21 21 21 22 22 23 23 23 24 24 25 26 27 27 27 26 27 26 26 24 24 24 23 22 21
33 34 35 35 36 36 34 36 32 31 32 29 27 29 29 29 29 31 29 27 26 23 22 21 20 20 21 21 22 22 23 23 24 25 26 27 27 27 27 27 27 27 27 27 27 25 25 23 22
31 32 33 33 32 33 30 32 29 24 25 24 22 23 26 27 27 29 27 25 24 22 21 20 20 20 21 21 21 22 23 24 25 26 27 27 27 26 26 26 26 27 28 28 27 25 25 23 23
27 27 28 27 26 25 22 23 23 22 23 21 20 21 22 24 25 24 22 21 20 20 20 20 20 21 21 21 22 22 23 25 25 25 25 25 25 24 24 24 25 26 27 27 27 26 25 24 24
25 23 23 23 23 21 18 17 16 17 18 19 19 20 20 20 22 21 18 18 18 18 19 20 20 21 21 21 22 23 23 24 24 24 23 23 22 21 21 22 23 23 23 24 24 25 24 25 24
26 23 21 23 25 24 22 18 14 13 16 18 20 20 18 18 18 18 16 16 16 17 19 20 20 20 21 21 22 23 22 22 22 22 21 21 20 19 19 19 20 20 20 21 21 21 23 24 25
27 25 23 25 26 23 19 18 19 16 15 13 14 15 16 17 16 17 17 17 17 18 19 20 20 20 21 21 21 22 21 21 21 20 19 19 18 18 18 17 17 18 18 19 20 20 21 21 22
27 25 25 27 25 21 19 21 23 22 20 16 15 15 16 16 17 18 17 17 17 18 19 20 20 21 21 21 21 21 20 20 19 19 18 18 18 18 18 17 17 17 17 18 18 19 19 20 20
27 26 26 27 27 26 25 23 23 24 21 16 14 13 16 17 17 18 18 18 18 18 19 20 21 21 21 22 22 22 21 21 20 19 18 18 19 19 19 19 19 18 18 19 19 20 20 20 19
Wind_Direction
127 124 114 103 93 87 55 52 45 34 6 293 268 265 265 275 279 278 282 270 248 254 304 345 356 358 358 358 1 6 10 8 2 356 351 345 338 336 336 334 333 332 325 318 294 202 204 207 209
137 133 116 106 73 57 47 41 36 26 5 322 285 277 278 278 281 282 278 265 242 246 284 326 346 352 355 357 359 4 7 5 358 350 340 335 331 329 331 335 335 333 331 340 346 178 196 202 207
146 143 118 115 79 49 42 38 33 22 5 341 311 293 292 285 284 284 277 262 247 246 275 314 335 347 354 358 0 2 3 3 357 345 334 328 325 321 322 327 329 333 332 344 14 130 181 193 202
155 151 135 99 82 54 38 34 32 21 6 351 334 319 304 294 289 284 275 264 252 250 268 301 325 344 355 0 3 3 3 1 356 345 331 323 320 313 308 311 316 322 324 329 348 126 171 192 201
166 158 151 107 89 62 32 16 13 15 7 2 352 339 323 308 293 284 275 262 250 250 261 284 316 338 352 0 5 4 1 359 353 343 332 323 317 311 300 295 300 305 302 296 279 216 187 185 198
174 168 147 117 104 67 26 2 353 352 355 355 357 347 338 325 307 288 272 256 246 249 254 271 304 328 346 357 2 3 359 355 351 344 335 327 321 315 303 289 288 294 290 276 255 232 216 205 200
177 176 148 162 176 129 13 357 350 348 347 350 348 341 342 335 322 300 273 254 246 247 248 263 293 318 339 351 358 359 358 353 347 343 336 330 325 319 308 292 282 284 286 273 255 238 227 221 217
187 189 181 184 223 234 302 328 334 342 345 341 334 336 345 344 333 313 279 254 243 242 244 261 287 308 328 343 353 357 356 351 344 340 336 331 327 320 311 298 284 279 281 274 259 244 233 229 227
197 200 206 215 241 255 277 297 308 321 329 332 330 334 338 335 329 318 284 255 242 240 245 261 282 300 317 332 343 350 351 349 343 337 332 329 326 320 314 305 291 279 276 273 264 250 240 234 232
204 210 214 229 244 261 273 287 297 307 318 325 331 331 328 325 321 313 292 262 247 245 248 262 280 295 306 319 330 339 343 342 340 335 329 326 323 320 317 312 299 283 275 272 266 255 246 241 237
212 221 229 239 251 262 273 280 290 300 308 317 324 328 324 315 312 303 287 270 259 257 260 266 278 290 301 309 318 327 333 335 336 334 330 327 323 320 319 317 305 289 276 271 265 257 249 245 241
225 231 239 246 253 263 271 278 285 293 304 311 316 321 323 315 303 298 286 272 265 264 268 274 280 288 297 304 311 317 326 331 334 335 333 328 325 321 319 318 308 295 280 271 265 258 249 245 243
236 241 247 253 258 264 270 277 283 289 296 304 311 316 319 315 302 293 286 278 270 269 273 279 284 289 295 301 307 313 319 325 330 332 333 328 324 321 319 318 311 299 284 274 268 259 248 246 248
247 251 257 262 265 268 271 276 282 285 288 295 303 309 313 314 306 296 289 284 277 273 276 282 286 290 294 299 304 309 314 318 323 329 331 328 325 322 320 318 313 302 288 277 269 260 250 248 249
252 256 260 265 269 271 273 276 281 281 285 289 296 302 307 309 308 301 293 292 286 281 282 287 291 294 297 299 302 306 312 315 315 321 326 325 323 321 319 317 312 304 292 279 269 260 252 249 249
256 258 262 265 268 270 272 275 278 279 282 286 292 297 300 302 303 300 295 293 292 289 289 292 295 297 300 300 301 305 310 312 312 311 316 315 315 315 314 312 309 303 294 281 268 259 253 249 247
256 259 261 264 267 269 270 271 273 276 279 282 285 289 293 294 295 294 293 292 292 292 292 294 297 299 301 300 301 303 307 309 308 304 304 305 304 306 307 306 304 302 294 284 271 259 254 249 246
256 258 261 263 264 266 268 270 271 273 276 277 279 283 286 288 289 289 288 288 288 288 289 293 297 299 300 301 302 302 304 305 304 297 299 297 296 299 299 299 299 298 291 283 273 260 253 248 244
261 261 262 263 264 265 265 268 272 272 274 274 276 277 280 283 286 284 284 285 284 284 285 289 294 296 299 300 301 301 301 301 299 295 296 294 293 294 294 292 292 293 289 281 272 262 254 248 242
265 265 263 263 264 267 268 269 271 272 273 271 270 271 274 276 277 279 280 281 280 280 282 285 290 294 297 299 300 299 298 299 298 296 294 293 290 289 289 288 286 286 286 278 273 266 258 249 240
267 268 267 268 267 268 270 270 272 271 270 267 266 267 268 267 268 272 273 274 275 275 278 282 286 291 294 296 297 297 296 296 296 295 293 291 289 288 286 284 281 280 279 276 272 268 264 254 242
270 269 270 272 271 270 271 271 270 270 268 266 264 262 262 260 259 262 265 265 266 269 273 278 284 290 293 295 295 296 296 296 296 296 294 291 289 286 284 281 277 274 272 271 272 270 268 262 249
272 271 272 274 274 274 273 274 273 268 267 263 262 260 259 258 253 255 259 259 261 265 270 276 282 288 292 294 295 296 296 296 297 296 294 291 288 285 282 277 272 270 269 268 269 270 268 264 256
277 274 273 273 275 276 278 279 277 268 262 257 253 256 257 254 250 251 255 255 258 263 270 276 283 289 292 294 294 296 296 297 297 297 294 291 288 285 281 276 271 267 266 265 264 266 265 263 263
285 281 278 277 277 279 277 274 276 272 268 258 255 259 259 253 251 251 251 253 256 263 270 279 286 289 291 292 294 295 296 297 297 296 294 292 290 286 283 277 271 267 264 262 260 264 266 263 263
287 282 276 276 275 275 275 279 275 274 279 275 274 273 264 258 252 250 249 251 256 264 275 283 286 288 290 292 294 296 298 299 298 296 294 292 290 287 284 277 271 267 263 261 259 261 265 264 264
278 274 268 264 266 267 269 277 279 278 280 283 284 281 274 269 261 256 256 259 263 270 277 282 284 288 290 293 296 298 300 300 299 297 294 292 289 286 284 279 272 267 263 260 261 262 264 264 261
269 264 256 255 259 257 255 258 253 251 252 245 247 257 262 263 260 259 257 259 265 271 276 279 283 287 291 293 297 299 301 303 302 299 295 293 290 286 283 280 275 270 266 263 261 264 265 263 258
262 255 245 244 250 257 252 251 253 245 235 214 211 219 239 242 249 254 254 262 266 270 276 281 286 289 290 292 296 299 302 304 303 300 295 292 289 286 284 281 277 273 269 266 265 266 266 263 260
259 250 243 242 241 242 247 254 252 250 243 238 231 225 240 249 252 255 263 268 270 274 280 284 288 291 292 292 294 298 301 303 302 300 297 293 289 286 283 281 277 273 270 267 265 266 268 264 264
Height
5886 5886 5887 5887 5889 5888 5887 5887 5887 5887 5887 5887 5887 5887 5887 5888 5889 5891 5889 5888 5889 5889 5889 5889 5888 5887 5885 5883 5882 5880 5878 5877 5876 5876 5875 5874 5873 5872 5872 5871 5871 5870 5870 5869 5868 5868 5869 5872 5874
5886 5887 5888 5888 5887 5887 5888 5887 5887 5887 5887 5886 5886 5886 5886 5887 5887 5887 5887 5887 5888 5889 5889 5889 5888 5887 5885 5884 5882 5880 5878 5877 5876 5875 5874 5874 5873 5872 5871 5871 5870 5870 5870 5869 5868 5868 5869 5870 5873
5886 5887 5888 5888 5887 5888 5889 5888 5888 5888 5887 5886 5886 5886 5886 5886 5886 5886 5886 5887 5888 5889 5889 5889 5888 5887 5885 5884 5882 5880 5878 5877 5875 5874 5873 5873 5872 5871 5871 5871 5870 5870 5870 5869 5869 5869 5869 5870 5872
5886 5888 5888 5888 5888 5889 5889 5889 5889 5889 5887 5887 5886 5886 5885 5885 5885 5885 5885 5886 5887 5888 5888 5888 5888 5887 5885 5884 5882 5880 5879 5877 5875 5874 5873 5872 5871 5870 5870 5870 5870 5870 5869 5869 5869 5869 5870 5870 5872
5886 5887 5889 5888 5889 5890 5890 5889 5889 5889 5888 5887 5887 5886 5885 5884 5884 5884 5884 5885 5886 5887 5887 5887 5887 5886 5885 5883 5882 5880 5878 5877 5875 5873 5872 5871 5870 5870 5869 5869 5869 5869 5869 5869 5869 5870 5870 5871 5872
5886 5887 5889 5888 5890 5890 5890 5890 5889 5889 5888 5887 5886 5886 5884 5883 5882 5882 5883 5883 5884 5885 5886 5886 5886 5885 5884 5883 5881 5879 5878 5876 5874 5873 5871 5870 5869 5868 5868 5868 5868 5868 5868 5869 5869 5869 5870 5871 5871
5887 5889 5888 5888 5890 5891 5891 5890 5890 5889 5888 5887 5887 5886 5884 5883 5882 5881 5881 5882 5883 5884 5885 5885 5885 5884 5883 5882 5880 5878 5877 5875 5873 5872 5870 5869 5867 5867 5867 5867 5867 5867 5867 5867 5868 5868 5869 5870 5871
5885 5888 5888 5889 5890 5891 5891 5890 5890 5889 5888 5888 5886 5885 5884 5883 5882 5881 5880 5881 5882 5883 5883 5884 5884 5883 5882 5881 5879 5877 5876 5874 5872 5871 5869 5867 5866 5865 5865 5865 5866 5866 5866 5866 5866 5866 5867 5868 5869
5885 5888 5888 5889 5889 5890 5890 5890 5890 5889 5888 5887 5886 5885 5884 5883 5881 5881 5880 5880 5881 5882 5882 5883 5882 5882 5881 5879 5878 5876 5874 5873 5871 5869 5868 5866 5865 5864 5863 5863 5864 5864 5864 5864 5864 5865 5865 5866 5867
5884 5887 5887 5887 5888 5889 5889 5889 5888 5888 5887 5886 5885 5884 5883 5882 5881 5880 5879 5879 5879 5880 5881 5881 5881 5880 5879 5878 5876 5874 5873 5871 5870 5868 5866 5865 5863 5862 5862 5862 5862 5862 5862 5862 5863 5863 5863 5864 5864
5882 5884 5885 5886 5887 5888 5888 5888 5887 5887 5886 5885 5883 5883 5882 5881 5880 5879 5878 5878 5878 5878 5879 5879 5879 5878 5877 5876 5874 5873 5871 5870 5868 5866 5865 5863 5862 5860 5860 5860 5859 5859 5860 5860 5861 5861 5861 5861 5862
5881 5882 5883 5884 5885 5886 5886 5886 5886 5886 5885 5883 5881 5881 5880 5880 5879 5878 5877 5877 5876 5876 5876 5876 5876 5876 5875 5873 5872 5871 5869 5868 5866 5865 5863 5861 5860 5859 5858 5858 5857 5857 5857 5858 5858 5858 5859 5859 5860
5878 5879 5880 5882 5883 5884 5884 5884 5884 5884 5883 5881 5879 5878 5877 5877 5876 5876 5875 5874 5874 5874 5873 5873 5873 5872 5872 5871 5870 5868 5867 5866 5865 5863 5862 5860 5858 5857 5856 5856 5855 5855 5855 5856 5856 5856 5857 5857 5858
5876 5877 5878 5879 5880 5881 5881 5881 5881 5881 5880 5879 5878 5876 5875 5874 5873 5872 5872 5871 5871 5871 5871 5870 5869 5869 5869 5868 5867 5866 5865 5864 5862 5861 5860 5858 5856 5855 5854 5853 5853 5853 5853 5853 5854 5854 5854 5855 5855
5873 5874 5875 5876 5876 5876 5877 5878 5878 5876 5876 5876 5875 5873 5872 5871 5870 5869 5868 5868 5867 5867 5867 5867 5866 5865 5865 5864 5863 5863 5862 5861 5860 5858 5857 5856 5854 5853 5852 5851 5850 5850 5850 5851 5851 5851 5852 5852 5853
5869 5870 5871 5872 5871 5871 5873 5874 5873 5871 5871 5871 5871 5870 5869 5868 5867 5866 5865 5864 5864 5863 5863 5863 5863 5862 5861 5860 5860 5859 5858 5857 5856 5855 5854 5853 5852 5851 5850 5848 5847 5847 5848 5848 5848 5849 5849 5850 5850
5864 5865 5866 5867 5866 5865 5866 5867 5868 5866 5866 5866 5866 5866 5865 5864 5864 5863 5862 5861 5860 5860 5859 5859 5859 5858 5857 5856 5856 5855 5854 5854 5853 5851 5850 5849 5849 5848 5847 5845 5845 5844 5845 5845 5845 5846 5847 5847 5847
5859 5858 5859 5860 5858 5859 5858 5860 5861 5860 5860 5860 5861 5861 5860 5859 5858 5858 5858 5858 5857 5856 5855 5854 5854 5854 5853 5852 5851 5851 5850 5850 5849 5848 5846 5846 5845 5845 5844 5842 5842 5842 5841 5842 5842 5842 5843 5844 5844
5852 5853 5853 5853 5851 5851 5851 5852 5854 5854 5854 5854 5854 5855 5855 5854 5853 5852 5853 5853 5853 5852 5851 5850 5849 5849 5849 5848 5847 5847 5846 5845 5845 5844 5843 5842 5841 5841 5840 5839 5838 5838 5838 5838 5838 5838 5839 5840 5841
5845 5844 5844 5844 5843 5843 5843 5844 5846 5846 5846 5846 5847 5848 5848 5848 5847 5845 5847 5847 5847 5848 5847 5846 5845 5844 5844 5843 5843 5842 5842 5841 5840 5839 5839 5838 5837 5836 5836 5835 5834 5834 5834 5834 5834 5834 5835 5835 5837
5837 5836 5835 5835 5836 5835 5835 5836 5838 5838 5837 5838 5839 5840 5841 5842 5841 5839 5841 5842 5842 5842 5842 5841 5841 5840 5839 5839 5838 5838 5837 5835 5835 5834 5833 5832 5831 5830 5830 5829 5829 5829 5829 5829 5830 5830 5831 5831 5832
5828 5827 5827 5826 5826 5826 5826 5824 5829 5828 5828 5829 5830 5831 5832 5834 5834 5832 5834 5836 5836 5836 5836 5836 5836 5836 5835 5834 5833 5832 5831 5830 5829 5827 5826 5825 5824 5823 5823 5823 5823 5823 5823 5823 5824 5825 5826 5826 5827
5820 5819 5819 5818 5817 5818 5817 5816 5820 5819 5819 5820 5821 5822 5823 5825 5826 5825 5827 5829 5830 5830 5831 5831 5831 5831 5830 5829 5828 5827 5826 5824 5823 5821 5820 5818 5817 5816 5815 5815 5816 5816 5817 5817 5818 5819 5820 5821 5822
5812 5811 5811 5810 5810 5811 5811 5810 5812 5811 5811 5812 5813 5815 5816 5817 5818 5818 5820 5822 5823 5824 5825 5826 5826 5826 5825 5824 5823 5822 5820 5818 5816 5815 5813 5811 5809 5808 5808 5807 5808 5809 5810 5811 5812 5813 5814 5815 5817
5805 5805 5804 5804 5803 5804 5803 5804 5806 5805 5806 5807 5808 5808 5809 5810 5811 5812 5814 5816 5817 5819 5820 5820 5820 5820 5819 5818 5817 5816 5814 5812 5810 5808 5806 5804 5803 5802 5801 5800 5801 5801 5802 5803 5805 5807 5807 5809 5810
5800 5800 5800 5799 5799 5798 5798 5798 5800 5799 5801 5802 5802 5803 5803 5804 5805 5807 5808 5810 5812 5813 5814 5815 5815 5815 5814 5812 5811 5809 5808 5806 5804 5802 5800 5799 5797 5796 5795 5794 5794 5794 5795 5797 5798 5800 5801 5803 5804
5794 5794 5794 5793 5792 5793 5794 5795 5794 5792 5795 5796 5797 5798 5798 5799 5800 5801 5803 5805 5807 5808 5809 5810 5809 5809 5808 5806 5805 5803 5802 5800 5798 5796 5795 5793 5792 5791 5790 5789 5789 5789 5790 5791 5793 5794 5796 5796 5798
5787 5786 5787 5786 5786 5787 5789 5790 5789 5789 5788 5789 5791 5791 5793 5794 5795 5796 5798 5800 5802 5803 5804 5804 5804 5803 5802 5801 5799 5798 5796 5794 5793 5791 5790 5789 5787 5786 5785 5785 5785 5785 5785 5787 5788 5789 5790 5791 5792
5777 5778 5778 5778 5779 5781 5783 5786 5784 5782 5782 5780 5782 5785 5788 5789 5790 5790 5791 5795 5797 5798 5798 5798 5798 5798 5797 5795 5794 5793 5791 5789 5788 5786 5785 5784 5783 5782 5781 5781 5781 5781 5781 5782 5783 5784 5785 5785 5786
5765 5766 5768 5771 5772 5774 5777 5780 5775 5777 5777 5775 5777 5779 5784 5786 5787 5787 5787 5790 5792 5793 5793 5793 5793 5792 5791 5790 5789 5788 5786 5785 5783 5782 5780 5779 5778 5778 5777 5777 5776 5777 5777 5777 5778 5779 5780 5780 5781